Find Iridium Next SV166

NORAD ID: 43570 Int'l Des: 2018-061 Owner: IRIDS Country: US Constellation: Iridium NEXT operational
LEOCIRCULARPOLAR

Current View

Loading 3D Globe...

About Iridium Next SV166

Description loading...

Upcoming Passes

Passes for default location (London). Set your location on the main map for personalized predictions.

Altitude History

Loading altitude history...

Two-Line Element Set

1 43570U 18061B 26149.80637122 .00000024 00000-0 14856-5 0 9991
2 43570 86.3971 64.4321 0002105 83.1078 277.0357 14.34217636410766
Epoch: May 29, 2026 • Age: 16 hours

Current Status

Altitude 780.0 km
Velocity 7.47 km/s
Sub-Earth Point 19.57°N, 172.62°W
Launch Date Jul 25, 2018
Age 7.8 years
Type communications

Technical Details

Classification Payload
Mass 860.00 kg
Dry Mass 700.00 kg
Total Mass 860.00 kg
Length 3.10 m
Diameter 1.50 m
Span 9.40 m
Shape Half Hex Prism+2 pan
Manufacturer NGISGA
Bus Type EliteBus
Phase Status In Orbit
Owner/State IRIDS/US

Most Searched